logo
Search for airport 
image banner adimage banner adimage banner ad
image banner ad

FALE - King Shaka International

Located in Durban, South Africa

ICAO - FALE, IATA - DUR

Data provided by Airmate  

General information

Coordinates: S29°36'42" E31°7'10"
Elevation is 304 feet MSL.
Magnetic variation is -25° East
View others Airports in Kwazulu-Natal

Operational data

Special qualification required
Current time UTC:
Current local time:
Weather
METAR: FALE 270300Z 18002KT CAVOK 15/13 Q1025 NOSIG
TAF: TAF FALE 262200Z 2700/2806 25006KT 9999 SCT025 BKN050 TX26/2712Z TN13/2703Z FM270300 25005KT CAVOK BECMG 2709/2711 13010KT BECMG 2716/2718 VRB03KT
View NOTAMs / SUP AIP / TFR affecting this airport [VIEW]
Communications frequencies: [VIEW]

Runways:

RWY identifierQFULength (ft)Width (ft)SurfaceLDA (ft)
0637°12115187ASPH12139
24217°12115187ASPH12139

Airport contact information

Address: Durban South Africa

Other aviation service providers

Flight schools

Ballito Microlight

Ballito Microlight
comefly@mweb.co.za+27842663359

Satellite view of FALE